This is the latest recevied weather packets stored in our database for station/object GW4288. If no packets are shown the sender has not sent any weather packets the latest 1 day(s).
| Time | Temp. | Humidity | Pressure | Rain* | Wind** | Luminosity | Snow |
|---|---|---|---|---|---|---|---|
| 1778140871 | 17.22° C | 73% | 1011.6 hPa | 0 mm | - | 159 W/m² | - |
| 1778140736 | 17.22° C | 73% | 1011.8 hPa | 0 mm | - | 415 W/m² | - |
| 1778140617 | 17.22° C | 74% | 1011.7 hPa | 0 mm | - | 166 W/m² | - |
| 1778140498 | 16.67° C | 75% | 1011.7 hPa | 0 mm | - | 171 W/m² | - |
| 1778140378 | 16.67° C | 76% | 1011.9 hPa | 0 mm | - | 223 W/m² | - |
| 1778140258 | 16.67° C | 74% | 1011.8 hPa | 0 mm | - | 152 W/m² | - |
| 1778140137 | 16.67° C | 75% | 1011.9 hPa | 0 mm | - | 188 W/m² | - |
| 1778140030 | 16.67° C | 75% | 1011.8 hPa | 0 mm | - | 444 W/m² | - |
| 1778139896 | 16.67° C | 75% | 1011.7 hPa | 0 mm | - | 215 W/m² | - |
| 1778139776 | 16.67° C | 74% | 1011.7 hPa | 0 mm | - | 197 W/m² | - |
| 1778139656 | 16.67° C | 75% | 1011.8 hPa | 0 mm | - | 192 W/m² | - |
| 1778139537 | 16.67° C | 74% | 1011.7 hPa | 0 mm | - | 203 W/m² | - |
| 1778139417 | 16.67° C | 73% | 1011.7 hPa | 0 mm | - | 256 W/m² | - |
| 1778139297 | 16.11° C | 75% | 1011.7 hPa | 0 mm | - | 259 W/m² | - |
| 1778139177 | 16.11° C | 76% | 1011.8 hPa | 0 mm | - | 199 W/m² | - |
| 1778139056 | 16.11° C | 76% | 1011.6 hPa | 0 mm | - | 139 W/m² | - |
| 1778138937 | 16.11° C | 76% | 1011.7 hPa | 0 mm | - | 138 W/m² | - |
| 1778138817 | 16.67° C | 76% | 1011.6 hPa | 0 mm | - | 145 W/m² | - |
| 1778138696 | 16.67° C | 75% | 1011.7 hPa | 0 mm | - | 150 W/m² | - |
| 1778138576 | 17.22° C | 75% | 1011.6 hPa | 0 mm | - | 155 W/m² | - |
| 1778138454 | 17.22° C | 74% | 1011.7 hPa | 0 mm | - | 178 W/m² | - |
| 1778138334 | 16.67° C | 76% | 1011.7 hPa | 0 mm | - | 166 W/m² | - |
| 1778138214 | 16.11° C | 76% | 1011.7 hPa | 0 mm | - | 189 W/m² | - |
| 1778138099 | 16.11° C | 77% | 1011.4 hPa | 0 mm | - | 192 W/m² | - |
| 1778137974 | 15.56° C | 77% | 1011.6 hPa | 0 mm | - | 161 W/m² | - |
* Rain latest hour (hover to see other rain measurements)
** Current wind speed in m/s (hover to see current wind gust speed)